Regional Weather Roundup
Issued by NWS State College, PA

Home | Current Version | Previous Version | Graphics & Text | Print | Product List | Glossary On
Versions: 1 2 3 4 5 6 7 8 9 10 11 12 13 14 15 16 17 18 19 20 21 22 23 24 25 26 27 28 29 30 31 32 33 34 35 36 37 38 39 40 41 42 43 44 45 46 47 48 49 50
424
ASUS41 KCTP 060903
RWRCTP

REGIONAL WEATHER ROUNDUP
NATIONAL WEATHER SERVICE STATE COLLEGE PA
400 AM EST SAT FEB 06 2016

Note: "fair" indicates few or no clouds below 12,000 feet with no
significant weather and/or obstructions to visibility.

* = STATION THAT DOES NOT REPORT PRECIPITATION /E.G. RAIN...SNOW...ETC/
    THUNDER OR FOG.

PAZ002>004-007>009-013>016-020>023-029>032-061000-
WESTERN PENNSYLVANIA

CITY           SKY/WX    TMP DP  RH WIND       PRES   REMARKS
ERIE           CLOUDY    34  18  52 SW15      30.24F
MEADVILLE      CLOUDY    30  17  58 S9        30.22F
FRANKLIN*      CLOUDY    27  18  69 S8        30.26S
NEW CASTLE     CLOUDY    31  20  63 S6        30.28F
BEAVER COUNTY  NOT AVBL
BUTLER*        CLOUDY    28  18  64 S3        30.31F
PITTSBURGH INT CLOUDY    30  16  56 S5        30.28F
PITTSBURGH     CLOUDY    27  17  66 S9        30.29S
INDIANA*       PTCLDY    21  18  86 CALM      30.32F
LATROBE        CLOUDY    23  18  80 CALM      30.31F
WASHINGTON CO* CLOUDY    25  16  68 CALM      30.30F
$$

PAZ004>006-010>012-017>019-024>028-033>037-041-042-045-046-049>053-061000-
CENTRAL PENNSYLVANIA

CITY           SKY/WX    TMP DP  RH WIND       PRES   REMARKS
BRADFORD       CLOUDY    23  15  71 S3        30.22S
DUBOIS         CLOUDY    25  16  68 SW5       30.24F
CLEARFIELD     CLOUDY    20  16  84 CALM      30.29S
JOHNSTOWN      CLOUDY    23  12  62 SW8       30.25S WCI  14
ALTOONA        CLOUDY    23  15  71 SW6       30.31S
STATE COLLEGE  CLOUDY    24  15  70 SW5       30.31S
WILLIAMSPORT   CLEAR     22  17  81 NW3       30.34F
SELINSGROVE    CLEAR     21  18  88 CALM      30.36F
FT INDIANTOWN  PTCLDY    24  18  75 CALM      30.36S
CAPITAL CITY   CLOUDY    28  16  60 CALM      30.37S
HARRISBURG     CLOUDY    26  18  71 E3        30.37S
YORK           CLOUDY    19  16  88 CALM      30.37S
$$

PAZ038>040-043-044-047-048-054-055-060>062-067>071-061000-
EASTERN PENNSYLVANIA

CITY           SKY/WX    TMP DP  RH WIND       PRES   REMARKS
SCRANTON       CLEAR     24  17  74 SW3       30.31S
MOUNT POCONO   CLEAR     20  14  77 W6        30.24S WCI  12
ALLENTOWN      CLOUDY    22  15  75 CALM      30.36S
QUAKERTOWN*    CLOUDY    19  18  93 CALM      30.36S
READING        CLOUDY    23  15  71 N3        30.36S
LANCASTER      CLOUDY    25  17  72 CALM      30.37S
COATESVILLE    CLOUDY    28  19  69 W3        30.37S
POTTSTOWN      CLOUDY    22  18  85 CALM      30.38S
BLUE BELL        N/A     25  23  93 CALM      30.36S
DOYLESTOWN     CLOUDY    22  17  81 CALM      30.36R
WILLOW GROVE   NOT AVBL
NORTH PHILA    CLOUDY    26  21  81 CALM      30.40R
PHILADELPHIA   CLOUDY    29  20  69 SW6       30.40R
$$




USA.gov is the U.S. government's official web portal to all federal, state and local government web resources and services.